,,Stat6,,Stat2,,Stat8,,Stat9,,Stat10,,Wind1,,Wind1,
time,status,PA1M_AVG,status,PR1M_SUM,status,RH1M_AVG,status,SR1M_AVG,status,TA1M_AVG,status,W1dAve1m,status,W1sAve1m,
2003-11-11, 00:00:00,VALID,917.85,VALID,0,VALID,100,VALID,0.0339617,VALID,19.3276,VALID,23,VALID,0.993056,
2003-11-11, 00:01:00,VALID,917.845,VALID,0,VALID,100,VALID,0,VALID,19.3211,VALID,13,VALID,1.03452,
2003-11-11, 00:02:00,VALID,917.815,VALID,0,VALID,100,VALID,0,VALID,19.3087,VALID,8,VALID,0.748598,
2003-11-11, 00:03:00,VALID,917.777,VALID,0,VALID,100,VALID,0,VALID,19.2757,VALID,346,VALID,0.50343,
2003-11-11, 00:04:00,VALID,917.734,VALID,0,VALID,100,VALID,0,VALID,19.2658,VALID,355,VALID,0.474564,
2003-11-11, 00:05:00,VALID,917.699,VALID,0,VALID,100,VALID,0.0509425,VALID,19.2923,VALID,16,VALID,0.340892,
2003-11-11, 00:06:00,VALID,917.658,VALID,0,VALID,100,VALID,0.0169808,VALID,19.2819,VALID,342,VALID,0.506696,
2003-11-11, 00:07:00,VALID,917.65,VALID,0,VALID,100,VALID,0.0169808,VALID,19.2888,VALID,4,VALID,0.360973,
2003-11-11, 00:08:00,VALID,917.623,VALID,0,VALID,100,VALID,0,VALID,19.2921,VALID,16,VALID,0.633681,
2003-11-11, 00:09:00,VALID,917.609,VALID,0,VALID,100,VALID,0.0339617,VALID,19.2757,VALID,18,VALID,0.691311,
2003-11-11, 00:10:00,VALID,917.613,VALID,0,VALID,100,VALID,0.0339617,VALID,19.2985,VALID,23,VALID,0.698401,
2003-11-11, 00:11:00,VALID,917.587,VALID,0,VALID,100,VALID,0.0169808,VALID,19.3082,VALID,24,VALID,0.802083,
2003-11-11, 00:12:00,VALID,917.586,VALID,0,VALID,100,VALID,0.0339617,VALID,19.302,VALID,18,VALID,0.97745,
2003-11-11, 00:13:00,VALID,917.57,VALID,0,VALID,100,VALID,0.0169808,VALID,19.302,VALID,15,VALID,0.761083,
2003-11-11, 00:14:00,VALID,917.567,VALID,0,VALID,100,VALID,0.0169808,VALID,19.2951,VALID,23,VALID,0.882267,
2003-11-11, 00:15:00,VALID,917.561,VALID,0,VALID,100,VALID,0.0339617,VALID,19.302,VALID,18,VALID,0.901596,
2003-11-11, 00:16:00,VALID,917.558,VALID,0,VALID,100,VALID,0.0339617,VALID,19.3047,VALID,25,VALID,0.943576,
2003-11-11, 00:17:00,VALID,917.561,VALID,0,VALID,100,VALID,0.0339617,VALID,19.302,VALID,18,VALID,0.697976,
2003-11-11, 00:18:00,VALID,917.538,VALID,0,VALID,100,VALID,0,VALID,19.3052,VALID,23,VALID,0.421693,
2003-11-11, 00:19:00,VALID,917.524,VALID,0,VALID,100,VALID,0.0509425,VALID,19.3082,VALID,22,VALID,0.291788,
2003-11-11, 00:20:00,VALID,917.498,VALID,0,VALID,100,VALID,-0.0169808,VALID,19.2926,VALID,17,VALID,0.16678,
2003-11-11, 00:21:00,VALID,917.468,VALID,0,VALID,100,VALID,-0.101885,VALID,19.2935,VALID,17,VALID,0.230945,
2003-11-11, 00:22:00,VALID,917.447,VALID,0,VALID,100,VALID,-0.0509425,VALID,19.297,VALID,17,VALID,0.357422,
2003-11-11, 00:23:00,VALID,917.419,VALID,0,VALID,100,VALID,-0.0849042,VALID,19.2903,VALID,17,VALID,0.137607,
2003-11-11, 00:24:00,VALID,917.422,VALID,0,VALID,100,VALID,-0.0849042,VALID,19.3067,VALID,17,VALID,0.192587,
2003-11-11, 00:25:00,VALID,917.419,VALID,0,VALID,100,VALID,-0.0849042,VALID,19.3261,VALID,17,VALID,0.464472,
2003-11-11, 00:26:00,VALID,917.419,VALID,0,VALID,100,VALID,-0.0849042,VALID,19.3387,VALID,17,VALID,0.339931,
2003-11-11, 00:27:00,VALID,917.426,VALID,0,VALID,100,VALID,-0.0679233,VALID,19.339,VALID,18,VALID,0.252083,
2003-11-11, 00:28:00,VALID,917.435,VALID,0,VALID,100,VALID,-0.0679233,VALID,19.3258,VALID,12,VALID,0.512173,
2003-11-11, 00:29:00,VALID,917.442,VALID,0,VALID,100,VALID,-0.0849042,VALID,19.3228,VALID,19,VALID,0.596946,
2003-11-11, 00:30:00,VALID,917.442,VALID,0,VALID,100,VALID,-0.0679233,VALID,19.3293,VALID,18,VALID,0.226953,
2003-11-11, 00:31:00,VALID,917.449,VALID,0,VALID,100,VALID,-0.0509425,VALID,19.2935,VALID,351,VALID,0.342115,
2003-11-11, 00:32:00,VALID,917.434,VALID,0,VALID,100,VALID,-0.101885,VALID,19.2972,VALID,7,VALID,0.152344,
2003-11-11, 00:33:00,VALID,917.438,VALID,0,VALID,100,VALID,-0.0339617,VALID,19.2898,VALID,358,VALID,0.512576,
2003-11-11, 00:34:00,VALID,917.433,VALID,0,VALID,100,VALID,-0.0849042,VALID,19.2605,VALID,358,VALID,0.377907,
2003-11-11, 00:35:00,VALID,917.431,VALID,0,VALID,100,VALID,0,VALID,19.2511,VALID,358,VALID,0.334223,
2003-11-11, 00:36:00,VALID,917.422,VALID,0,VALID,100,VALID,-0.0509425,VALID,19.2704,VALID,15,VALID,0.453488,
2003-11-11, 00:37:00,VALID,917.423,VALID,0,VALID,100,VALID,-0.0339617,VALID,19.264,VALID,18,VALID,0.306076,
2003-11-11, 00:38:00,VALID,917.408,VALID,0,VALID,100,VALID,-0.0339617,VALID,19.2635,VALID,20,VALID,0.458939,
2003-11-11, 00:39:00,VALID,917.402,VALID,0,VALID,100,VALID,-0.0169808,VALID,19.26,VALID,29,VALID,0.514027,
2003-11-11, 00:40:00,VALID,917.375,VALID,0,VALID,100,VALID,-0.0169808,VALID,19.2543,VALID,34,VALID,0.696528,
2003-11-11, 00:41:00,VALID,917.359,VALID,0,VALID,100,VALID,-0.0169808,VALID,19.228,VALID,36,VALID,0.653392,
2003-11-11, 00:42:00,VALID,917.346,VALID,0,VALID,100,VALID,-0.0169808,VALID,19.2277,VALID,36,VALID,0.513263,
2003-11-11, 00:43:00,VALID,917.321,VALID,0,VALID,100,VALID,-0.0169808,VALID,19.2446,VALID,36,VALID,0.277699,
2003-11-11, 00:44:00,VALID,917.311,VALID,0,VALID,100,VALID,-0.0169808,VALID,19.2543,VALID,23,VALID,0.374023,
2003-11-11, 00:45:00,VALID,917.279,VALID,0,VALID,100,VALID,-0.0169808,VALID,19.2473,VALID,22,VALID,0.450763,
2003-11-11, 00:46:00,VALID,917.273,VALID,0,VALID,100,VALID,-0.0339617,VALID,19.257,VALID,22,VALID,0.288715,
2003-11-11, 00:47:00,VALID,917.257,VALID,0,VALID,100,VALID,-0.0339617,VALID,19.27,VALID,21,VALID,0.252907,
2003-11-11, 00:48:00,VALID,917.241,VALID,0,VALID,100,VALID,-0.0169808,VALID,19.2861,VALID,14,VALID,0.354883,
2003-11-11, 00:49:00,VALID,917.225,VALID,0,VALID,100,VALID,-0.0169808,VALID,19.2965,VALID,1,VALID,0.345846,
2003-11-11, 00:50:00,VALID,917.208,VALID,0,VALID,100,VALID,-0.0509425,VALID,19.267,VALID,358,VALID,0.251215,
2003-11-11, 00:51:00,VALID,917.187,VALID,0,VALID,100,VALID,0,VALID,19.2926,VALID,358,VALID,0.328711,
2003-11-11, 00:52:00,VALID,917.169,VALID,0,VALID,100,VALID,-0.0169808,VALID,19.3251,VALID,359,VALID,0.232013,
2003-11-11, 00:53:00,VALID,917.16,VALID,0,VALID,100,VALID,0,VALID,19.3283,VALID,16,VALID,0.639695,
2003-11-11, 00:54:00,VALID,917.151,VALID,0,VALID,100,VALID,-0.0509425,VALID,19.3571,VALID,23,VALID,0.942073,
2003-11-11, 00:55:00,VALID,917.148,VALID,0,VALID,100,VALID,-0.0339617,VALID,19.377,VALID,22,VALID,0.515253,
2003-11-11, 00:56:00,VALID,917.129,VALID,0,VALID,100,VALID,-0.0339617,VALID,19.3964,VALID,21,VALID,0.700462,
2003-11-11, 00:57:00,VALID,917.123,VALID,0,VALID,100,VALID,-0.0169808,VALID,19.3894,VALID,15,VALID,0.703316,
2003-11-11, 00:58:00,VALID,917.128,VALID,0,VALID,100,VALID,-0.0339617,VALID,19.3571,VALID,18,VALID,1.11808,
2003-11-11, 00:59:00,VALID,917.107,VALID,0,VALID,100,VALID,-0.0169808,VALID,19.3475,VALID,19,VALID,0.577217,
2003-11-11, 01:00:00,VALID,917.083,VALID,0,VALID,100,VALID,0,VALID,19.3447,VALID,6,VALID,0.836648,
2003-11-11, 01:01:00,VALID,917.076,VALID,0,VALID,100,VALID,0,VALID,19.3092,VALID,347,VALID,0.646257,
2003-11-11, 01:02:00,VALID,917.052,VALID,0,VALID,100,VALID,-0.0169808,VALID,19.2605,VALID,5,VALID,0.98125,
2003-11-11, 01:03:00,VALID,917.031,VALID,0,VALID,100,VALID,-0.0339617,VALID,19.2409,VALID,11,VALID,0.552859,
2003-11-11, 01:04:00,VALID,917.023,VALID,0,VALID,100,VALID,0,VALID,19.2411,VALID,11,VALID,0.217076,
2003-11-11, 01:05:00,VALID,917.004,VALID,0,VALID,100,VALID,0,VALID,19.2607,VALID,11,VALID,0.429688,
2003-11-11, 01:06:00,VALID,916.999,VALID,0,VALID,100,VALID,-0.0339617,VALID,19.2573,VALID,11,VALID,0.508575,
2003-11-11, 01:07:00,VALID,916.977,VALID,0,VALID,100,VALID,0,VALID,19.2377,VALID,19,VALID,0.962713,
2003-11-11, 01:08:00,VALID,916.96,VALID,0,VALID,100,VALID,-0.0169808,VALID,19.2282,VALID,18,VALID,0.987537,
2003-11-11, 01:09:00,VALID,916.943,VALID,0,VALID,100,VALID,-0.0339617,VALID,19.2275,VALID,8,VALID,1.01036,
2003-11-11, 01:10:00,VALID,916.919,VALID,0,VALID,100,VALID,-0.0339617,VALID,19.2446,VALID,14,VALID,0.458147,
2003-11-11, 01:11:00,VALID,916.911,VALID,0,VALID,100,VALID,-0.0339617,VALID,19.2665,VALID,17,VALID,0.765115,
2003-11-11, 01:12:00,VALID,916.88,VALID,0,VALID,100,VALID,-0.0509425,VALID,19.2829,VALID,8,VALID,0.87609,
2003-11-11, 01:13:00,VALID,916.859,VALID,0,VALID,100,VALID,0,VALID,19.2729,VALID,10,VALID,0.855741,
2003-11-11, 01:14:00,VALID,916.837,VALID,0,VALID,100,VALID,-0.0169808,VALID,19.2633,VALID,16,VALID,0.869348,
2003-11-11, 01:15:00,VALID,916.801,VALID,0,VALID,100,VALID,-0.0339617,VALID,19.26,VALID,12,VALID,0.576126,
2003-11-11, 01:16:00,VALID,916.771,VALID,0,VALID,100,VALID,0,VALID,19.2767,VALID,10,VALID,0.581745,
2003-11-11, 01:17:00,VALID,916.747,VALID,0,VALID,100,VALID,-0.0169808,VALID,19.2665,VALID,3,VALID,0.637847,
2003-11-11, 01:18:00,VALID,916.742,VALID,0,VALID,100,VALID,-0.0339617,VALID,19.267,VALID,3,VALID,0.699479,
2003-11-11, 01:19:00,VALID,916.728,VALID,0,VALID,100,VALID,0.0169808,VALID,19.254,VALID,12,VALID,0.582617,
2003-11-11, 01:20:00,VALID,916.72,VALID,0,VALID,100,VALID,-0.0169808,VALID,19.257,VALID,12,VALID,0.50558,
2003-11-11, 01:21:00,VALID,916.724,VALID,0,VALID,100,VALID,-0.0339617,VALID,19.2568,VALID,12,VALID,0.154848,
2003-11-11, 01:22:00,VALID,916.723,VALID,0,VALID,100,VALID,0,VALID,19.2635,VALID,13,VALID,0.359375,
2003-11-11, 01:23:00,VALID,916.729,VALID,0,VALID,100,VALID,-0.0169808,VALID,19.2633,VALID,20,VALID,0.557422,
2003-11-11, 01:24:00,VALID,916.713,VALID,0,VALID,100,VALID,-0.0169808,VALID,19.2764,VALID,21,VALID,0.896439,
2003-11-11, 01:25:00,VALID,916.726,VALID,0,VALID,100,VALID,-0.0339617,VALID,19.27,VALID,19,VALID,0.731997,
2003-11-11, 01:26:00,VALID,916.722,VALID,0,VALID,100,VALID,-0.0169808,VALID,19.2436,VALID,18,VALID,0.383929,
2003-11-11, 01:27:00,VALID,916.714,VALID,0,VALID,100,VALID,-0.0339617,VALID,19.2603,VALID,15,VALID,0.398056,
2003-11-11, 01:28:00,VALID,916.694,VALID,0,VALID,100,VALID,-0.0339617,VALID,19.2635,VALID,356,VALID,0.749455,
2003-11-11, 01:29:00,VALID,916.677,VALID,0,VALID,100,VALID,-0.0169808,VALID,19.2603,VALID,19,VALID,1.25893,
2003-11-11, 01:30:00,VALID,916.687,VALID,0,VALID,100,VALID,0,VALID,19.2483,VALID,14,VALID,1.55831,
2003-11-11, 01:31:00,VALID,916.68,VALID,0,VALID,100,VALID,-0.0339617,VALID,19.2252,VALID,14,VALID,1.48801,
2003-11-11, 01:32:00,VALID,916.678,VALID,0,VALID,100,VALID,-0.0169808,VALID,19.1897,VALID,8,VALID,0.794876,
2003-11-11, 01:33:00,VALID,916.683,VALID,0,VALID,100,VALID,-0.0679233,VALID,19.2056,VALID,11,VALID,0.4758,
2003-11-11, 01:34:00,VALID,916.687,VALID,0,VALID,100,VALID,-0.0169808,VALID,19.219,VALID,17,VALID,0.630273,
2003-11-11, 01:35:00,VALID,916.696,VALID,0,VALID,100,VALID,-0.0339617,VALID,19.2245,VALID,9,VALID,0.862153,
2003-11-11, 01:36:00,VALID,916.71,VALID,0,VALID,100,VALID,0,VALID,19.2118,VALID,357,VALID,0.986421,
2003-11-11, 01:37:00,VALID,916.726,VALID,0,VALID,100,VALID,0.0169808,VALID,19.218,VALID,360,VALID,0.831143,
2003-11-11, 01:38:00,VALID,916.713,VALID,0,VALID,100,VALID,0.0169808,VALID,19.2049,VALID,5,VALID,0.858445,
2003-11-11, 01:39:00,VALID,916.718,VALID,0,VALID,100,VALID,0,VALID,19.2312,VALID,15,VALID,0.520275,
2003-11-11, 01:40:00,VALID,916.71,VALID,0,VALID,100,VALID,-0.0169808,VALID,19.2372,VALID,356,VALID,0.515988,
2003-11-11, 01:41:00,VALID,916.694,VALID,0.2,VALID,100,VALID,0.0169808,VALID,19.2441,VALID,358,VALID,0.527734,
2003-11-11, 01:42:00,VALID,916.66,VALID,0,VALID,100,VALID,0,VALID,19.2146,VALID,17,VALID,1.19896,
2003-11-11, 01:43:00,VALID,916.637,VALID,0,VALID,100,VALID,0,VALID,19.218,VALID,7,VALID,0.909412,
2003-11-11, 01:44:00,VALID,916.604,VALID,0,VALID,100,VALID,0.0169808,VALID,19.2178,VALID,352,VALID,0.613582,
2003-11-11, 01:45:00,VALID,916.56,VALID,0,VALID,100,VALID,0,VALID,19.2121,VALID,12,VALID,0.686967,
2003-11-11, 01:46:00,VALID,916.531,VALID,0,VALID,100,VALID,0.0169808,VALID,19.2243,VALID,14,VALID,0.938072,
2003-11-11, 01:47:00,VALID,916.52,VALID,0,VALID,100,VALID,0,VALID,19.2441,VALID,2,VALID,0.161735,
2003-11-11, 01:48:00,VALID,916.508,VALID,0,VALID,100,VALID,0,VALID,19.2374,VALID,18,VALID,0.896289,
2003-11-11, 01:49:00,VALID,916.519,VALID,0,VALID,100,VALID,-0.0169808,VALID,19.2444,VALID,17,VALID,1.07515,
2003-11-11, 01:50:00,VALID,916.527,VALID,0,VALID,100,VALID,-0.0169808,VALID,19.264,VALID,23,VALID,1.03739,
2003-11-11, 01:51:00,VALID,916.52,VALID,0,VALID,100,VALID,0,VALID,19.27,VALID,16,VALID,0.754542,
2003-11-11, 01:52:00,VALID,916.508,VALID,0,VALID,100,VALID,0.0169808,VALID,19.2568,VALID,18,VALID,1.12835,
2003-11-11, 01:53:00,VALID,916.483,VALID,0,VALID,100,VALID,0,VALID,19.231,VALID,19,VALID,1.66871,
2003-11-11, 01:54:00,VALID,916.465,VALID,0,VALID,100,VALID,-0.0169808,VALID,19.2314,VALID,356,VALID,0.938834,
2003-11-11, 01:55:00,VALID,916.433,VALID,0,VALID,100,VALID,0,VALID,19.2088,VALID,359,VALID,0.501776,
2003-11-11, 01:56:00,VALID,916.406,VALID,0,VALID,100,VALID,0.0169808,VALID,19.1987,VALID,9,VALID,1.01504,
2003-11-11, 01:57:00,VALID,916.388,VALID,0,VALID,100,VALID,0,VALID,19.2155,VALID,13,VALID,0.942264,
2003-11-11, 01:58:00,VALID,916.356,VALID,0,VALID,100,VALID,-0.0169808,VALID,19.1992,VALID,352,VALID,0.920351,
2003-11-11, 01:59:00,VALID,916.329,VALID,0,VALID,100,VALID,0,VALID,19.1666,VALID,7,VALID,0.926153,
2003-11-11, 02:00:00,VALID,916.315,VALID,0,VALID,100,VALID,0,VALID,19.1537,VALID,355,VALID,0.908482,
2003-11-11, 02:01:00,VALID,916.297,VALID,0,VALID,100,VALID,0,VALID,19.1577,VALID,4,VALID,0.950218,
2003-11-11, 02:02:00,VALID,916.277,VALID,0,VALID,100,VALID,0,VALID,19.1403,VALID,4,VALID,1.04764,
2003-11-11, 02:03:00,VALID,916.275,VALID,0,VALID,100,VALID,0.0169808,VALID,19.1664,VALID,11,VALID,0.652902,
2003-11-11, 02:04:00,VALID,916.256,VALID,0,VALID,100,VALID,0,VALID,19.1694,VALID,12,VALID,0.614099,
2003-11-11, 02:05:00,VALID,916.243,VALID,0,VALID,100,VALID,0,VALID,19.1897,VALID,24,VALID,1.02634,
2003-11-11, 02:06:00,VALID,916.229,VALID,0,VALID,100,VALID,0,VALID,19.1659,VALID,18,VALID,0.825581,
2003-11-11, 02:07:00,VALID,916.224,VALID,0,VALID,100,VALID,0,VALID,19.1825,VALID,14,VALID,0.684766,
2003-11-11, 02:08:00,VALID,916.196,VALID,0,VALID,100,VALID,0.0169808,VALID,19.1788,VALID,17,VALID,0.773256,
2003-11-11, 02:09:00,VALID,916.184,VALID,0,VALID,100,VALID,0,VALID,19.1795,VALID,2,VALID,0.693537,
2003-11-11, 02:10:00,VALID,916.16,VALID,0,VALID,100,VALID,-0.0169808,VALID,19.1631,VALID,6,VALID,0.746271,
2003-11-11, 02:11:00,VALID,916.15,VALID,0,VALID,100,VALID,0.0169808,VALID,19.1569,VALID,16,VALID,0.680088,
2003-11-11, 02:12:00,VALID,916.108,VALID,0,VALID,100,VALID,0,VALID,19.1535,VALID,351,VALID,0.681641,
2003-11-11, 02:13:00,VALID,916.086,VALID,0,VALID,100,VALID,-0.0169808,VALID,19.1408,VALID,355,VALID,0.786204,
2003-11-11, 02:14:00,VALID,916.082,VALID,0,VALID,100,VALID,0,VALID,19.1505,VALID,18,VALID,0.928416,
2003-11-11, 02:15:00,VALID,916.078,VALID,0,VALID,100,VALID,0,VALID,19.1857,VALID,13,VALID,0.741257,
2003-11-11, 02:16:00,VALID,916.079,VALID,0,VALID,100,VALID,0.0169808,VALID,19.2118,VALID,19,VALID,0.625558,
2003-11-11, 02:17:00,VALID,916.074,VALID,0,VALID,100,VALID,0,VALID,19.2178,VALID,339,VALID,0.644922,
2003-11-11, 02:18:00,VALID,916.07,VALID,0,VALID,100,VALID,-0.0169808,VALID,19.2084,VALID,9,VALID,0.684549,
2003-11-11, 02:19:00,VALID,916.041,VALID,0,VALID,100,VALID,0,VALID,19.2118,VALID,10,VALID,0.899182,
2003-11-11, 02:20:00,VALID,916.029,VALID,0,VALID,100,VALID,0,VALID,19.2183,VALID,6,VALID,1.11668,
2003-11-11, 02:21:00,VALID,916.02,VALID,0,VALID,100,VALID,-0.0339617,VALID,19.2054,VALID,13,VALID,0.969494,
2003-11-11, 02:22:00,VALID,916.018,VALID,0,VALID,100,VALID,-0.0169808,VALID,19.2059,VALID,13,VALID,0.637767,
2003-11-11, 02:23:00,VALID,916.012,VALID,0,VALID,100,VALID,0,VALID,19.2088,VALID,7,VALID,0.822674,
2003-11-11, 02:24:00,VALID,916.038,VALID,0,VALID,100,VALID,-0.0169808,VALID,19.1924,VALID,5,VALID,0.888719,
2003-11-11, 02:25:00,VALID,916.04,VALID,0,VALID,100,VALID,0,VALID,19.1723,VALID,9,VALID,1.23081,
2003-11-11, 02:26:00,VALID,916.062,VALID,0,VALID,100,VALID,0,VALID,19.1825,VALID,11,VALID,0.981898,
2003-11-11, 02:27:00,VALID,916.078,VALID,0,VALID,100,VALID,0.0169808,VALID,19.2215,VALID,25,VALID,0.650476,
2003-11-11, 02:28:00,VALID,916.078,VALID,0,VALID,100,VALID,0,VALID,19.2344,VALID,26,VALID,0.249822,
2003-11-11, 02:29:00,VALID,916.08,VALID,0,VALID,100,VALID,0,VALID,19.2444,VALID,10,VALID,0.391387,
2003-11-11, 02:30:00,VALID,916.067,VALID,0,VALID,100,VALID,-0.0169808,VALID,19.2503,VALID,1,VALID,0.296693,
2003-11-11, 02:31:00,VALID,916.058,VALID,0,VALID,100,VALID,0,VALID,19.2372,VALID,10,VALID,0.660342,
2003-11-11, 02:32:00,VALID,916.048,VALID,0,VALID,100,VALID,0.0169808,VALID,19.2511,VALID,16,VALID,0.93149,
2003-11-11, 02:33:00,VALID,916.052,VALID,0,VALID,100,VALID,0,VALID,19.2667,VALID,15,VALID,0.753089,
2003-11-11, 02:34:00,VALID,916.057,VALID,0,VALID,100,VALID,-0.0169808,VALID,19.267,VALID,16,VALID,0.614462,
2003-11-11, 02:35:00,VALID,916.068,VALID,0,VALID,100,VALID,0,VALID,19.2704,VALID,23,VALID,0.877668,
2003-11-11, 02:36:00,VALID,916.087,VALID,0,VALID,100,VALID,-0.0169808,VALID,19.2635,VALID,357,VALID,0.363839,
2003-11-11, 02:37:00,VALID,916.083,VALID,0,VALID,100,VALID,-0.0339617,VALID,19.2771,VALID,358,VALID,0.366642,
2003-11-11, 02:38:00,VALID,916.068,VALID,0,VALID,100,VALID,-0.0169808,VALID,19.2866,VALID,4,VALID,0.543605,
2003-11-11, 02:39:00,VALID,916.058,VALID,0,VALID,100,VALID,-0.0169808,VALID,19.2831,VALID,4,VALID,0.400799,
2003-11-11, 02:40:00,VALID,916.038,VALID,0,VALID,100,VALID,-0.0339617,VALID,19.2573,VALID,360,VALID,0.301235,
2003-11-11, 02:41:00,VALID,916.018,VALID,0,VALID,100,VALID,-0.0169808,VALID,19.2347,VALID,359,VALID,0,
2003-11-11, 02:42:00,VALID,915.989,VALID,0,VALID,100,VALID,-0.0169808,VALID,19.2347,VALID,359,VALID,0.0184659,
2003-11-11, 02:43:00,VALID,915.972,VALID,0,VALID,100,VALID,-0.0679233,VALID,19.2347,VALID,359,VALID,0.0884146,
2003-11-11, 02:44:00,VALID,915.963,VALID,0,VALID,100,VALID,-0.0339617,VALID,19.2605,VALID,359,VALID,0.218387,
2003-11-11, 02:45:00,VALID,915.966,VALID,0,VALID,100,VALID,-0.0849042,VALID,19.2871,VALID,360,VALID,0.235709,
2003-11-11, 02:46:00,VALID,915.971,VALID,0,VALID,100,VALID,-0.0169808,VALID,19.3097,VALID,360,VALID,0.224432,
2003-11-11, 02:47:00,VALID,915.971,VALID,0,VALID,100,VALID,-0.0509425,VALID,19.3089,VALID,360,VALID,0.0176711,
2003-11-11, 02:48:00,VALID,915.976,VALID,0,VALID,100,VALID,-0.0509425,VALID,19.3221,VALID,360,VALID,0.000355114,
2003-11-11, 02:49:00,VALID,915.98,VALID,0,VALID,100,VALID,-0.0509425,VALID,19.3094,VALID,360,VALID,0.00260417,
2003-11-11, 02:50:00,VALID,915.969,VALID,0,VALID,100,VALID,-0.0339617,VALID,19.3184,VALID,360,VALID,0.00713315,
2003-11-11, 02:51:00,VALID,915.977,VALID,0,VALID,100,VALID,0,VALID,19.3251,VALID,360,VALID,0,
2003-11-11, 02:52:00,VALID,915.967,VALID,0,VALID,100,VALID,-0.0339617,VALID,19.3092,VALID,360,VALID,0.00090843,
2003-11-11, 02:53:00,VALID,915.948,VALID,0,VALID,100,VALID,-0.0169808,VALID,19.2928,VALID,360,VALID,0,
2003-11-11, 02:54:00,VALID,915.948,VALID,0,VALID,100,VALID,0,VALID,19.2863,VALID,360,VALID,0,
2003-11-11, 02:55:00,VALID,915.932,VALID,0,VALID,100,VALID,-0.0169808,VALID,19.2739,VALID,360,VALID,0,
2003-11-11, 02:56:00,VALID,915.931,VALID,0,VALID,100,VALID,-0.0339617,VALID,19.2573,VALID,360,VALID,0,
2003-11-11, 02:57:00,VALID,915.914,VALID,0,VALID,100,VALID,-0.0849042,VALID,19.2675,VALID,360,VALID,0,
2003-11-11, 02:58:00,VALID,915.919,VALID,0,VALID,100,VALID,-0.0339617,VALID,19.264,VALID,360,VALID,0,
2003-11-11, 02:59:00,VALID,915.911,VALID,0,VALID,100,VALID,-0.0169808,VALID,19.2665,VALID,360,VALID,0,
2003-11-11, 03:00:00,VALID,915.907,VALID,0,VALID,100,VALID,-0.0679233,VALID,19.2707,VALID,360,VALID,0,
2003-11-11, 03:01:00,VALID,915.902,VALID,0,VALID,100,VALID,0,VALID,19.2774,VALID,360,VALID,0.0354288,
2003-11-11, 03:02:00,VALID,915.909,VALID,0,VALID,100,VALID,-0.0509425,VALID,19.2637,VALID,360,VALID,0.00595238,
2003-11-11, 03:03:00,VALID,915.902,VALID,0,VALID,100,VALID,-0.0339617,VALID,19.2764,VALID,360,VALID,0,
2003-11-11, 03:04:00,VALID,915.88,VALID,0,VALID,100,VALID,-0.0169808,VALID,19.2893,VALID,360,VALID,0,
2003-11-11, 03:05:00,VALID,915.884,VALID,0,VALID,100,VALID,0,VALID,19.299,VALID,360,VALID,0,
2003-11-11, 03:06:00,VALID,915.878,VALID,0,VALID,100,VALID,-0.0509425,VALID,19.3062,VALID,360,VALID,0.0567708,
2003-11-11, 03:07:00,VALID,915.88,VALID,0,VALID,100,VALID,0,VALID,19.2764,VALID,360,VALID,0.0133168,
2003-11-11, 03:08:00,VALID,915.876,VALID,0,VALID,100,VALID,0,VALID,19.2764,VALID,360,VALID,0.000868056,
2003-11-11, 03:09:00,VALID,915.882,VALID,0,VALID,100,VALID,0,VALID,19.2767,VALID,360,VALID,0,
2003-11-11, 03:10:00,VALID,915.876,VALID,0,VALID,100,VALID,0,VALID,19.293,VALID,360,VALID,0.031808,
2003-11-11, 03:11:00,VALID,915.873,VALID,0,VALID,100,VALID,-0.0339617,VALID,19.2928,VALID,360,VALID,0,
2003-11-11, 03:12:00,VALID,915.869,VALID,0,VALID,100,VALID,-0.0509425,VALID,19.3221,VALID,360,VALID,0,
2003-11-11, 03:13:00,VALID,915.871,VALID,0,VALID,100,VALID,-0.0339617,VALID,19.3385,VALID,360,VALID,0,
2003-11-11, 03:14:00,VALID,915.86,VALID,0,VALID,100,VALID,-0.0339617,VALID,19.3445,VALID,360,VALID,0.226736,
2003-11-11, 03:15:00,VALID,915.865,VALID,0,VALID,100,VALID,-0.0509425,VALID,19.3611,VALID,360,VALID,0.0302083,
2003-11-11, 03:16:00,VALID,915.879,VALID,0,VALID,100,VALID,-0.0169808,VALID,19.3609,VALID,8,VALID,0.133903,
2003-11-11, 03:17:00,VALID,915.855,VALID,0,VALID,100,VALID,-0.0169808,VALID,19.3544,VALID,49,VALID,0.77798,
2003-11-11, 03:18:01,VALID,915.848,VALID,0,VALID,100,VALID,-0.0339617,VALID,19.3345,VALID,52,VALID,0.889509,
2003-11-11, 03:19:00,VALID,915.848,VALID,0,VALID,100,VALID,-0.0169808,VALID,19.3343,VALID,50,VALID,0.525856,
2003-11-11, 03:20:00,VALID,915.837,VALID,0,VALID,100,VALID,-0.0169808,VALID,19.3114,VALID,60,VALID,0.710938,
2003-11-11, 03:21:01,VALID,915.849,VALID,0,VALID,100,VALID,-0.0339617,VALID,19.3184,VALID,65,VALID,0.674665,
2003-11-11, 03:22:00,VALID,915.846,VALID,0,VALID,100,VALID,-0.0339617,VALID,19.2993,VALID,59,VALID,0.853051,
2003-11-11, 03:23:00,VALID,915.849,VALID,0,VALID,100,VALID,0,VALID,19.3027,VALID,54,VALID,0.591332,
2003-11-11, 03:24:00,VALID,915.844,VALID,0,VALID,100,VALID,-0.0339617,VALID,19.2995,VALID,45,VALID,0.641768,
2003-11-11, 03:25:01,VALID,915.828,VALID,0,VALID,100,VALID,-0.0509425,VALID,19.2995,VALID,32,VALID,0.569382,
2003-11-11, 03:26:01,VALID,915.814,VALID,0,VALID,100,VALID,-0.0339617,VALID,19.2997,VALID,28,VALID,0.879794,
2003-11-11, 03:27:00,VALID,915.806,VALID,0,VALID,100,VALID,-0.0679233,VALID,19.2834,VALID,38,VALID,0.731944,
2003-11-11, 03:28:00,VALID,915.794,VALID,0,VALID,100,VALID,-0.0339617,VALID,19.2709,VALID,39,VALID,0.530692,
2003-11-11, 03:29:01,VALID,915.779,VALID,0,VALID,100,VALID,-0.0339617,VALID,19.264,VALID,21,VALID,0.800694,
2003-11-11, 03:30:00,VALID,915.77,VALID,0,VALID,100,VALID,-0.0849042,VALID,19.2578,VALID,21,VALID,0.53497,
2003-11-11, 03:31:00,VALID,915.766,VALID,0,VALID,100,VALID,0,VALID,19.2635,VALID,40,VALID,0.562314,
2003-11-11, 03:32:00,VALID,915.756,VALID,0,VALID,100,VALID,-0.0339617,VALID,19.2573,VALID,30,VALID,0.723586,
2003-11-11, 03:33:01,VALID,915.763,VALID,0,VALID,100,VALID,-0.0509425,VALID,19.2384,VALID,34,VALID,0.805398,
2003-11-11, 03:34:00,VALID,915.768,VALID,0,VALID,100,VALID,0,VALID,19.2289,VALID,26,VALID,0.759588,
2003-11-11, 03:35:00,VALID,915.77,VALID,0,VALID,100,VALID,-0.0169808,VALID,19.2188,VALID,28,VALID,0.989844,
2003-11-11, 03:36:00,VALID,915.753,VALID,0,VALID,100,VALID,-0.0169808,VALID,19.2086,VALID,21,VALID,0.968178,
2003-11-11, 03:37:00,VALID,915.774,VALID,0,VALID,100,VALID,-0.0169808,VALID,19.2151,VALID,13,VALID,0.880903,
2003-11-11, 03:38:01,VALID,915.762,VALID,0,VALID,100,VALID,-0.0169808,VALID,19.2024,VALID,22,VALID,0.914435,
2003-11-11, 03:39:01,VALID,915.744,VALID,0,VALID,100,VALID,-0.0169808,VALID,19.2121,VALID,20,VALID,0.807091,
2003-11-11, 03:40:01,VALID,915.749,VALID,0,VALID,100,VALID,-0.0169808,VALID,19.2091,VALID,35,VALID,0.706659,
2003-11-11, 03:41:00,VALID,915.736,VALID,0,VALID,100,VALID,-0.0169808,VALID,19.2151,VALID,37,VALID,0.792259,
2003-11-11, 03:42:01,VALID,915.735,VALID,0,VALID,100,VALID,-0.0169808,VALID,19.2158,VALID,46,VALID,0.909412,
2003-11-11, 03:43:00,VALID,915.732,VALID,0,VALID,100,VALID,0,VALID,19.2026,VALID,55,VALID,0.677641,
2003-11-11, 03:44:00,VALID,915.744,VALID,0,VALID,100,VALID,-0.0169808,VALID,19.1964,VALID,78,VALID,0.709549,